Time,TemperatureF,DewpointF,PressureIn,WindDirection,WindDirectionDegrees,WindSpeedMPH,WindSpeedGustMPH,Humidity,HourlyPrecipIn,Conditions,Clouds,dailyrainin,SoftwareType,DateUTC
2013-06-04 04:33:00,41.0,40.7,30.03,SSE,157,0.0,-999.0,99,-99.99,,,0.00,Acu-Link.com,2013-06-04 08:33:00,
2013-06-04 04:48:00,40.3,40.0,30.03,SE,135,0.0,-999.0,99,-99.99,,,0.00,Acu-Link.com,2013-06-04 08:48:00,
2013-06-04 05:06:00,40.1,39.8,30.03,East,90,1.1,-999.0,99,-99.99,,,0.00,Acu-Link.com,2013-06-04 09:06:00,
2013-06-04 05:22:00,40.1,39.8,30.04,ESE,112,2.2,-999.0,99,-99.99,,,0.00,Acu-Link.com,2013-06-04 09:22:00,
2013-06-04 10:37:00,57.7,47.6,30.12,NNE,22,2.2,-999.0,69,-99.99,,,0.00,Acu-Link.com,2013-06-04 14:37:00,
2013-06-04 10:53:00,57.7,47.6,30.12,SSE,157,0.0,-999.0,69,-99.99,,,0.00,Acu-Link.com,2013-06-04 14:53:00,
2013-06-04 11:08:00,59.9,48.5,30.13,NW,315,2.2,-999.0,66,-99.99,,,0.00,Acu-Link.com,2013-06-04 15:08:00,
2013-06-04 11:24:00,61.0,47.0,30.11,West,270,2.2,-999.0,60,-99.99,,,0.00,Acu-Link.com,2013-06-04 15:24:00,
2013-06-04 11:39:00,60.8,45.9,30.12,NNE,22,2.7,-999.0,58,-99.99,,,0.00,Acu-Link.com,2013-06-04 15:39:00,
2013-06-04 11:59:00,62.4,47.4,30.11,NE,45,3.7,-999.0,58,-99.99,,,0.00,Acu-Link.com,2013-06-04 15:59:00,
2013-06-04 12:16:00,62.6,47.6,30.11,North,0,3.7,-999.0,58,-99.99,,,0.00,Acu-Link.com,2013-06-04 16:16:00,
2013-06-04 12:31:00,64.0,47.0,30.10,WNW,292,3.7,-999.0,54,-99.99,,,0.00,Acu-Link.com,2013-06-04 16:31:00,
2013-06-04 19:21:00,69.8,49.2,30.09,WSW,247,1.1,-999.0,48,-99.99,,,0.00,Acu-Link.com,2013-06-04 23:21:00,
2013-06-04 19:37:00,68.9,49.5,30.10,WNW,292,0.0,-999.0,50,-99.99,,,0.00,Acu-Link.com,2013-06-04 23:37:00,
2013-06-04 20:12:00,66.4,49.2,30.10,SE,135,0.0,-999.0,54,-99.99,,,0.00,Acu-Link.com,2013-06-05 00:12:00,
2013-06-04 20:31:00,61.5,49.6,30.11,SE,135,1.7,-999.0,65,-99.99,,,0.00,Acu-Link.com,2013-06-05 00:31:00,
2013-06-04 20:52:00,58.5,49.1,30.11,ESE,112,0.0,-999.0,71,-99.99,,,0.00,Acu-Link.com,2013-06-05 00:52:00,
2013-06-04 21:33:00,54.1,48.7,30.12,ESE,112,2.2,-999.0,82,-99.99,,,0.00,Acu-Link.com,2013-06-05 01:33:00,
2013-06-04 21:48:00,53.1,48.7,30.13,ESE,112,2.2,-999.0,85,-99.99,,,0.00,Acu-Link.com,2013-06-05 01:48:00,
2013-06-04 22:04:00,52.5,48.4,30.13,ESE,112,2.7,-999.0,86,-99.99,,,0.00,Acu-Link.com,2013-06-05 02:04:00,
2013-06-04 22:28:00,52.3,48.2,30.13,ESE,112,2.2,-999.0,86,-99.99,,,0.00,Acu-Link.com,2013-06-05 02:28:00,
2013-06-04 22:59:00,52.2,48.1,30.13,ESE,112,2.2,-999.0,86,-99.99,,,0.00,Acu-Link.com,2013-06-05 02:59:00,
2013-06-04 23:15:00,51.6,47.6,30.13,ESE,112,2.2,-999.0,86,-99.99,,,0.00,Acu-Link.com,2013-06-05 03:15:00,
2013-06-04 23:31:00,51.6,47.6,30.13,ESE,112,1.7,-999.0,86,-99.99,,,0.00,Acu-Link.com,2013-06-05 03:31:00,